Lancaster, PA

8:16 PM EST on November 24, 2017 (GMT -0500)
Lancaster

Weather History for KLNS - August, 2013

Change the Weather History Date:

Monday, August 12, 2013

  Actual Average Record
Temperature  
Mean Temperature 75 °F -  
Max Temperature 84 °F 84 °F 96 °F (2002)
Min Temperature 68 °F 64 °F 52 °F (2006)
Cooling Degree Days 10    
Growing Degree Days 25 (Base 50)    
Moisture  
Dew Point 66 °F    
Average Humidity 78    
Maximum Humidity 94    
Minimum Humidity 47    
Precipitation  
Precipitation 0.00 in - - ()
Sea Level Pressure  
Sea Level Pressure 30.00 in    
Wind  
Wind Speed 1 mph (NE)    
Max Wind Speed 7 mph    
Max Gust Speed -    
Visibility 6 miles    
Events Rain    
Averages and records for this station are not official NWS values.
T = Trace of Precipitation, MM = Missing Value Source: NWS Daily Summary

Daily Weather History Graph

Daily Weather History Graph

Search for Another Location

Airport or City:

Trip Planner

Search our weather history database for the weather conditions in past years. The results will help you decide how hot, cold, wet, or windy it might be!

Date:

Astronomy

Aug. 12, 2013 Rise Set
Actual Time 6:13 AM EDT 8:05 PM EDT
Civil Twilight 5:44 AM EDT 8:34 PM EDT
Nautical Twilight 5:08 AM EDT 9:10 PM EDT
Astronomical Twilight 4:30 AM EDT 9:48 PM EDT
Moon 12:02 PM EDT (8/12) 10:56 PM EDT (8/12)
Length of Visible Light 14h 50m
Length of Day
13h 51m
Waxing Crescent, 31% of the Moon is Illuminated
Aug 12
Waxing Crescent
Aug 14
First Quarter
Aug 20
Full
Aug 28
Last Quarter
Sep 5
New

Hourly Weather History & Observations

Time (EDT) Temp. Heat Index Dew Point Humidity Pressure Visibility Wind Dir Wind Speed Gust Speed Precip Events Conditions
12:53 AM 68.0 °F - 66.0 °F 93% 30.04 in 5.0 mi Calm Calm - N/A   Clear
1:53 AM 68.0 °F - 66.0 °F 93% 30.03 in 3.0 mi Calm Calm - N/A   Overcast
2:53 AM 68.0 °F - 66.0 °F 93% 30.01 in 4.0 mi Calm Calm - N/A   Partly Cloudy
3:53 AM 69.1 °F - 66.0 °F 90% 30.01 in 4.0 mi Calm Calm - N/A   Mostly Cloudy
4:03 AM 69.8 °F - 66.2 °F 88% 30.02 in 4.0 mi Calm Calm - 0.00 in Rain Light Rain
4:25 AM 69.8 °F - 66.2 °F 88% 30.01 in 2.5 mi Calm Calm - 0.00 in   Overcast
4:41 AM 69.8 °F - 66.2 °F 88% 30.02 in 3.0 mi Calm Calm - 0.00 in   Overcast
4:53 AM 69.1 °F - 66.9 °F 93% 30.01 in 3.0 mi Calm Calm - 0.00 in   Overcast
5:08 AM 69.8 °F - 66.2 °F 88% 30.01 in 3.0 mi Calm Calm - N/A   Overcast
5:19 AM 69.8 °F - 66.2 °F 88% 30.01 in 2.5 mi Calm Calm - N/A   Overcast
5:42 AM 69.8 °F - 66.2 °F 88% 30.01 in 2.5 mi Calm Calm - N/A   Overcast
5:53 AM 69.1 °F - 66.9 °F 93% 30.01 in 2.5 mi Calm Calm - N/A   Mostly Cloudy
6:28 AM 68.0 °F - 66.2 °F 94% 30.02 in 1.5 mi Calm Calm - N/A   Mostly Cloudy
6:53 AM 69.1 °F - 66.9 °F 93% 30.01 in 1.8 mi Calm Calm - N/A   Overcast
7:14 AM 69.8 °F - 66.2 °F 88% 30.02 in 1.5 mi Calm Calm - N/A   Overcast
7:26 AM 69.8 °F - 66.2 °F 88% 30.03 in 1.5 mi Calm Calm - N/A   Overcast
7:53 AM 70.0 °F - 68.0 °F 93% 30.03 in 2.0 mi Calm Calm - 0.00 in   Mostly Cloudy
8:53 AM 72.0 °F - 68.0 °F 87% 30.02 in 2.5 mi Calm Calm - N/A   Mostly Cloudy
8:56 AM 71.6 °F - 68.0 °F 88% 30.03 in 3.0 mi Calm Calm - N/A   Overcast
9:13 AM 73.4 °F - 68.0 °F 83% 30.03 in 3.0 mi North 4.6 mph - N/A   Haze
9:33 AM 73.4 °F - 68.0 °F 83% 30.03 in 4.0 mi ENE 3.5 mph - N/A   Haze
9:48 AM 73.4 °F - 68.0 °F 83% 30.03 in 4.0 mi ENE 5.8 mph - N/A   Haze
9:53 AM 75.0 °F - 68.0 °F 79% 30.02 in 5.0 mi NE 4.6 mph - N/A   Haze
10:13 AM 75.2 °F - 68.0 °F 78% 30.03 in 5.0 mi NNE 4.6 mph - N/A   Haze
10:53 AM 77.0 °F - 66.9 °F 71% 30.02 in 8.0 mi ENE 4.6 mph - N/A   Partly Cloudy
11:53 AM 79.0 °F - 66.9 °F 66% 30.01 in 9.0 mi NNE 6.9 mph - N/A   Scattered Clouds
12:17 PM 78.8 °F - 66.2 °F 65% 30.02 in 10.0 mi NE 5.8 mph - N/A   Mostly Cloudy
12:24 PM 80.6 °F 82.3 °F 64.4 °F 58% 30.02 in 10.0 mi North 3.5 mph - N/A   Scattered Clouds
12:53 PM 80.1 °F 81.7 °F 64.0 °F 58% 30.01 in 10.0 mi NE 4.6 mph - N/A   Scattered Clouds
1:53 PM 82.0 °F 83.4 °F 64.0 °F 54% 30.00 in 10.0 mi NNE 4.6 mph - N/A   Scattered Clouds
2:53 PM 82.9 °F 83.7 °F 62.1 °F 49% 29.99 in 10.0 mi North 5.8 mph - N/A   Scattered Clouds
3:53 PM 82.9 °F 83.3 °F 61.0 °F 47% 29.98 in 10.0 mi Variable 4.6 mph - N/A   Clear
4:53 PM 82.9 °F 83.3 °F 61.0 °F 47% 29.95 in 10.0 mi Calm Calm - N/A   Clear
5:53 PM 82.9 °F 83.7 °F 62.1 °F 49% 29.95 in 10.0 mi NNW 3.5 mph - N/A   Partly Cloudy
6:53 PM 81.0 °F 81.6 °F 60.1 °F 49% 29.94 in 10.0 mi WSW 5.8 mph - N/A   Clear
7:53 PM 80.1 °F 81.1 °F 61.0 °F 52% 29.95 in 10.0 mi SSW 3.5 mph - N/A   Clear
8:53 PM 73.9 °F - 64.0 °F 71% 29.94 in 10.0 mi Calm Calm - N/A   Clear
9:53 PM 71.1 °F - 66.0 °F 84% 29.94 in 9.0 mi Calm Calm - N/A   Clear
10:53 PM 70.0 °F - 64.9 °F 84% 29.93 in 8.0 mi NE 3.5 mph - N/A   Clear
11:53 PM 69.1 °F - 64.9 °F 87% 29.92 in 7.0 mi ENE 3.5 mph - N/A   Clear